2023/10/01 00:00:00, 0.0,16.5
2023/10/01 00:10:00, 0.0,16.6
2023/10/01 00:20:00, 0.0,16.4
2023/10/01 00:30:00, 0.0,16.3
2023/10/01 00:40:00, 0.0,16.3
2023/10/01 00:50:00, 0.0,16.1
2023/10/01 01:00:00, 0.0,16.2
2023/10/01 01:10:00, 0.0,16.3
2023/10/01 01:20:00, 0.0,15.9
2023/10/01 01:30:00, 0.3,16.0
2023/10/01 01:40:00, 0.3,16.0
2023/10/01 01:50:00, 0.4,16.0
2023/10/01 02:00:00, 0.4,15.9
2023/10/01 02:10:00, 0.3,15.9
2023/10/01 02:20:00, 0.3,15.8
2023/10/01 02:30:00, 0.4,15.9
2023/10/01 02:40:00, 0.4,15.9
2023/10/01 02:50:00, 0.3,16.1
2023/10/01 03:00:00, 0.4,15.9
2023/10/01 03:10:00, 0.4,15.9
2023/10/01 03:20:00, 0.4,15.9
2023/10/01 03:30:00, 0.4,16.1
2023/10/01 03:40:00, 0.4,16.0
2023/10/01 03:50:00, 0.4,16.0
2023/10/01 04:00:00, 0.4,15.9
2023/10/01 04:10:00, 0.3,15.8
2023/10/01 04:20:00, 0.4,16.0
2023/10/01 04:30:00, 0.4,15.8
2023/10/01 04:40:00, 0.3,15.7
2023/10/01 04:50:00, 0.4,15.6
2023/10/01 05:00:00, 0.4,15.6
2023/10/01 05:10:00, 0.4,15.9
2023/10/01 05:20:00, 0.3,15.5
2023/10/01 05:30:00, 0.2,15.6
2023/10/01 05:40:00, 0.3,15.7
2023/10/01 05:50:00, 0.3,15.4
2023/10/01 06:00:00, 0.4,15.5
2023/10/01 06:10:00, 0.4,15.4
2023/10/01 06:20:00, 0.4,15.5
2023/10/01 06:30:00, 0.4,15.5
2023/10/01 06:40:00, 0.4,15.3
2023/10/01 06:50:00, 0.4,15.5
2023/10/01 07:00:00, 0.4,15.5
2023/10/01 07:10:00, 0.4,15.8
2023/10/01 07:20:00, 0.4,15.6
2023/10/01 07:30:00, 0.4,15.6
2023/10/01 07:40:00, 0.3,15.5
2023/10/01 07:50:00, 0.3,15.7
2023/10/01 08:00:00, 0.3,15.7
2023/10/01 08:10:00, 0.3,15.9
2023/10/01 08:20:00, 0.4,15.8
2023/10/01 08:30:00, 0.5,16.2
2023/10/01 08:40:00, 0.3,16.3
2023/10/01 08:50:00, 0.2,16.3
2023/10/01 09:00:00, 0.2,16.8
2023/10/01 09:10:00, 0.2,17.0
2023/10/01 09:20:00, 0.2,16.9
2023/10/01 09:30:00, 0.2,17.2
2023/10/01 09:40:00, 0.2,17.7
2023/10/01 09:50:00, 0.2,17.6
2023/10/01 10:00:00, 0.3,18.0
2023/10/01 10:10:00, 0.2,18.4
2023/10/01 10:20:00, 0.2,18.6
2023/10/01 10:30:00, 0.1,18.7
2023/10/01 10:40:00, 0.2,18.5
2023/10/01 10:50:00, 0.4,18.7
2023/10/01 11:00:00, 0.2,19.1
2023/10/01 11:10:00, 0.1,19.4
2023/10/01 11:20:00, 0.1,20.2
2023/10/01 11:30:00, 0.1,19.8
2023/10/01 11:40:00, 0.1,19.8
2023/10/01 11:50:00, 0.0,20.5
2023/10/01 12:00:00, 0.1,20.7
2023/10/01 12:10:00, 0.2,20.5
2023/10/01 12:20:00, 0.2,20.4
2023/10/01 12:30:00, 0.1,20.2
2023/10/01 12:40:00, 0.0,22.2
2023/10/01 12:50:00, 0.1,21.5
2023/10/01 13:00:00, 0.1,20.6
2023/10/01 13:10:00, 0.1,22.0
2023/10/01 13:20:00, 0.1,20.2
2023/10/01 13:30:00, 0.2,19.2
2023/10/01 13:40:00, 0.2,18.7
2023/10/01 13:50:00, 0.2,18.3
2023/10/01 14:00:00, 0.2,18.6
2023/10/01 14:10:00, 0.2,18.1
2023/10/01 14:20:00, 0.2,18.3
2023/10/01 14:30:00, 0.2,17.6
2023/10/01 14:40:00, 0.3,16.9
2023/10/01 14:50:00, 0.2,17.2
2023/10/01 15:00:00, 0.3,17.7
2023/10/01 15:10:00, 0.2,17.2
2023/10/01 15:20:00, 0.2,17.6
2023/10/01 15:30:00, 0.3,17.3
2023/10/01 15:40:00, 0.3,17.0
2023/10/01 15:50:00, 0.3,17.1
2023/10/01 16:00:00, 0.2,16.8
2023/10/01 16:10:00, 0.2,16.7
2023/10/01 16:20:00, 0.2,16.7
2023/10/01 16:30:00, 0.3,16.7
2023/10/01 16:40:00, 0.3,16.3
2023/10/01 16:50:00, 0.3,16.0
2023/10/01 17:00:00, 0.2,15.9
2023/10/01 17:10:00, 0.3,15.8
2023/10/01 17:20:00, 0.3,15.6
2023/10/01 17:30:00, 0.4,15.2
2023/10/01 17:40:00, 0.3,15.0
2023/10/01 17:50:00, 0.3,15.2
2023/10/01 18:00:00, 0.4,15.1
2023/10/01 18:10:00, 0.4,14.8
2023/10/01 18:20:00, 0.3,14.8
2023/10/01 18:30:00, 0.4,14.5
2023/10/01 18:40:00, 0.3,14.4
2023/10/01 18:50:00, 0.3,14.3
2023/10/01 19:00:00, 0.3,14.2
2023/10/01 19:10:00, 0.2,14.3
2023/10/01 19:20:00, 0.2,14.2
2023/10/01 19:30:00, 0.2,14.0
2023/10/01 19:40:00, 0.2,13.5
2023/10/01 19:50:00, 0.2,14.0
2023/10/01 20:00:00, 0.2,13.7
2023/10/01 20:10:00, 0.3,13.6
2023/10/01 20:20:00, 0.2,13.7
2023/10/01 20:30:00, 0.2,13.2
2023/10/01 20:40:00, 0.2,13.1
2023/10/01 20:50:00, 0.3,12.8
2023/10/01 21:00:00, 0.3,13.0
2023/10/01 21:10:00, 0.2,12.6
2023/10/01 21:20:00, 0.2,12.6
2023/10/01 21:30:00, 0.3,12.4
2023/10/01 21:40:00, 0.2,12.6
2023/10/01 21:50:00, 0.2,12.8
2023/10/01 22:00:00, 0.2,12.9
2023/10/01 22:10:00, 0.2,12.7
2023/10/01 22:20:00, 0.2,12.8
2023/10/01 22:30:00, 0.2,12.9
2023/10/01 22:40:00, 0.2,13.4
2023/10/01 22:50:00, 0.2,13.3
2023/10/01 23:00:00, 0.3,13.2
2023/10/01 23:10:00, 0.1,13.4
2023/10/01 23:20:00, 0.1,13.4
2023/10/01 23:30:00, 0.1,13.4
2023/10/01 23:40:00, 0.1,13.1
2023/10/01 23:50:00, 0.1,13.4
